• Join FlightAware (Why Join?)
  • Login
  • US Flag 
01:48PM EST


 

Airport Tracker/Info


-or-


 

Live Flight TrackerFlight Track Log ✈ FDX657 ✈ 03-May-2012 ✈ KBDL - KMEM

Flight Track Log - Related Links

Times and Time Zones

All times are in EDT time to prevent confusion due to time zone crossing. See the FDX657 flight status page for this flight to view local times or setup timezone preferences in your user account.

Time Position Orientation Groundspeed Altitude Reporting Facility
EDT Latitude Longitude Course Direction KTS MPH feet Rate Location/Type
08:01AM 41.9311 -72.7025 268° West 152 175 1,200  Level Boston Center
08:02AM 41.9289 -72.7917 267° West 168 193 4,400 3,000 Climbing Boston Center
08:03AM 41.9244 -72.8894 268° West 218 251 8,500 3,360 Climbing Boston Center
08:04AM 41.9217 -72.9981 267° West 263 303 11,200 2,820 Climbing Boston Center
08:05AM 41.9167 -73.1458 267° West 342 394 14,200 3,060 Climbing Boston Center
08:06AM 41.9117 -73.2825 240° Southwest 393 452 17,400 3,060 Climbing Boston Center
08:07AM 41.8542 -73.4183 225° Southwest 404 465 20,400 2,760 Climbing Boston Center
08:08AM 41.7656 -73.5367 220° Southwest 422 486 23,000 2,280 Climbing Boston Center
08:09AM 41.6667 -73.6461 226° Southwest 447 514 25,000 2,580 Climbing Boston Center
08:11AM 41.5122 -73.8604 226° Southwest 470 541 29,600 2,700 Climbing FlightAware ADS-B
08:11AM 41.4662 -73.9236 225° Southwest 473 544 30,600 1,920 Climbing FlightAware ADS-B
08:12AM 41.4145 -73.9936 226° Southwest 473 544 31,700 1,260 Climbing FlightAware ADS-B
08:12AM 41.3692 -74.0554 226° Southwest 459 528 32,000 240 Climbing FlightAware ADS-B
08:13AM 41.3232 -74.1179 226° Southwest 430 495 32,000  Level FlightAware ADS-B
08:13AM 41.2746 -74.1837 225° Southwest 469 540 32,000  Level FlightAware ADS-B
08:14AM 41.2262 -74.2490 225° Southwest 459 528 32,000  Level FlightAware ADS-B
08:14AM 41.1803 -74.3108 225° Southwest 445 512 32,000  Level FlightAware ADS-B
08:15AM 41.1333 -74.3731 226° Southwest 459 528 32,000  Level FlightAware ADS-B
08:15AM 41.0861 -74.4379 225° Southwest 460 529 32,000  Level FlightAware ADS-B
08:16AM 41.0386 -74.5017 225° Southwest 465 535 32,000  Level FlightAware ADS-B
08:16AM 40.9932 -74.5625 225° Southwest 446 513 32,000  Level FlightAware ADS-B
08:17AM 40.9464 -74.6250 225° Southwest 453 521 32,000  Level FlightAware ADS-B
08:18AM 40.9019 -74.6844 225° Southwest 454 522 32,000  Level FlightAware ADS-B
08:18AM 40.8566 -74.7448 227° Southwest 448 516 32,000  Level FlightAware ADS-B
08:19AM 40.8123 -74.8066 233° Southwest 457 526 32,000  Level FlightAware ADS-B
08:19AM 40.7738 -74.8729 239° Southwest 453 521 32,000  Level FlightAware ADS-B
08:20AM 40.7406 -74.9448 240° Southwest 451 519 32,000  Level FlightAware ADS-B
08:20AM 40.7088 -75.0179 240° Southwest 468 539 32,000  Level FlightAware ADS-B
08:21AM 40.6759 -75.0920 239° Southwest 455 524 32,000  Level FlightAware ADS-B
08:21AM 40.6437 -75.1633 239° Southwest 457 526 32,000  Level FlightAware ADS-B
08:22AM 40.6101 -75.2366 239° Southwest 452 520 32,000  Level FlightAware ADS-B
08:22AM 40.5770 -75.3090 239° Southwest 478 550 32,000  Level FlightAware ADS-B
08:23AM 40.5444 -75.3806 239° Southwest 459 528 32,000  Level FlightAware ADS-B
08:23AM 40.5109 -75.4534 239° Southwest 443 510 32,000  Level FlightAware ADS-B
08:24AM 40.4767 -75.5273 239° Southwest 469 540 32,000  Level FlightAware ADS-B
08:24AM 40.4436 -75.5988 239° Southwest 474 545 32,000  Level FlightAware ADS-B
08:25AM 40.4100 -75.6718 239° Southwest 442 509 32,000  Level FlightAware ADS-B
08:25AM 40.3761 -75.7448 239° Southwest 461 531 32,000  Level FlightAware ADS-B
08:26AM 40.3430 -75.8158 239° Southwest 459 528 32,000  Level FlightAware ADS-B
08:26AM 40.3100 -75.8867 239° Southwest 477 549 32,000  Level FlightAware ADS-B
08:27AM 40.2749 -75.9620 238° Southwest 463 533 32,000  Level FlightAware ADS-B
08:27AM 40.2410 -76.0343 238° Southwest 452 520 32,000  Level FlightAware ADS-B
08:28AM 40.2070 -76.1066 238° Southwest 458 527 32,000  Level FlightAware ADS-B
08:28AM 40.1723 -76.1803 238° Southwest 469 540 32,000  Level FlightAware ADS-B
08:29AM 40.1372 -76.2549 238° Southwest 449 517 32,000  Level FlightAware ADS-B
08:29AM 40.1018 -76.3299 239° Southwest 481 554 32,000  Level FlightAware ADS-B
08:30AM 40.0677 -76.4041 239° Southwest 456 525 32,000  Level FlightAware ADS-B
08:30AM 40.0330 -76.4796 239° Southwest 459 528 32,000  Level FlightAware ADS-B
08:31AM 39.9976 -76.5562 239° Southwest 451 519 32,000  Level FlightAware ADS-B
08:31AM 39.9624 -76.6319 239° Southwest 467 537 32,000  Level FlightAware ADS-B
08:32AM 39.9276 -76.7069 239° Southwest 467 537 32,000  Level FlightAware ADS-B
08:32AM 39.8864 -76.7953 239° Southwest 458 527 32,000  Level FlightAware ADS-B
08:33AM 39.8477 -76.8777 239° Southwest 477 549 32,000  Level FlightAware ADS-B
08:34AM 39.8121 -76.9539 238° Southwest 457 526 32,000  Level FlightAware ADS-B
08:34AM 39.7767 -77.0287 239° Southwest 479 551 32,000  Level FlightAware ADS-B
08:35AM 39.7374 -77.1122 238° Southwest 481 554 32,000  Level FlightAware ADS-B
08:35AM 39.6991 -77.1932 238° Southwest 485 558 32,000  Level FlightAware ADS-B
08:36AM 39.6636 -77.2679 238° Southwest 460 529 32,000  Level FlightAware ADS-B
08:36AM 39.6279 -77.3429 238° Southwest 491 565 32,000  Level FlightAware ADS-B
08:37AM 39.5911 -77.4207 238° Southwest 468 539 32,000  Level FlightAware ADS-B
08:37AM 39.5549 -77.4960 238° Southwest 468 539 32,000  Level FlightAware ADS-B
08:38AM 39.5161 -77.5776 238° Southwest 485 558 32,000  Level FlightAware ADS-B
08:38AM 39.4780 -77.6569 238° Southwest 476 548 32,000  Level FlightAware ADS-B
08:39AM 39.4406 -77.7348 238° Southwest 474 545 32,000  Level FlightAware ADS-B
08:39AM 39.4047 -77.8091 240° Southwest 470 541 32,000  Level FlightAware ADS-B
08:40AM 39.3693 -77.8878 243° Southwest 501 577 32,000  Level FlightAware ADS-B
08:41AM 39.3342 -77.9765 243° Southwest 488 562 32,000  Level FlightAware ADS-B
08:41AM 39.2780 -78.1191 242° Southwest 490 564 32,000  Level FlightAware ADS-B
08:42AM 39.2369 -78.2206 243° Southwest 486 559 32,000  Level Washington Center
08:43AM 39.1753 -78.3736 242° Southwest 486 559 32,000  Level Washington Center
08:44AM 39.1133 -78.5236 243° Southwest 486 559 32,000  Level Washington Center
08:45AM 39.0531 -78.6789 241° Southwest 481 554 32,000  Level Washington Center
08:46AM 38.9908 -78.8231 243° Southwest 481 554 32,000  Level Washington Center
08:47AM 38.9306 -78.9725 242° Southwest 481 554 32,000  Level Washington Center
08:48AM 38.8678 -79.1244 248° West 481 554 32,000  Level Washington Center
08:49AM 38.8172 -79.2819 259° West 486 559 32,000  Level Washington Center
08:50AM 38.7936 -79.4353 259° West 476 548 32,000  Level Washington Center
08:51AM 38.7694 -79.6017 258° West 481 554 32,000  Level Washington Center
08:52AM 38.7381 -79.7836 257° West 486 559 32,000  Level Washington Center
08:53AM 38.7072 -79.9494 257° West 486 559 32,000  Level Washington Center
08:54AM 38.6761 -80.1153 255° West 486 559 32,000  Level Washington Center
08:55AM 38.6364 -80.3108 256° West 484 557 32,000  Level Indianapolis Center
08:56AM 38.6033 -80.4744 256° West 479 551 32,000  Level Indianapolis Center
08:57AM 38.5719 -80.6378 257° West 473 544 32,000  Level Indianapolis Center
08:58AM 38.5386 -80.8169 256° West 473 544 32,000  Level Indianapolis Center
08:59AM 38.5069 -80.9772 256° West 473 544 32,000  Level Indianapolis Center
09:00AM 38.4769 -81.1322 256° West 468 539 32,000  Level Indianapolis Center
09:01AM 38.4444 -81.2925 255° West 463 533 32,000  Level Indianapolis Center
09:02AM 38.4119 -81.4500 255° West 463 533 32,000  Level Indianapolis Center
09:03AM 38.3792 -81.6072 257° West 463 533 32,000  Level Indianapolis Center
09:04AM 38.3506 -81.7642 251° West 463 533 32,000  Level Indianapolis Center
09:05AM 38.3089 -81.9186 250° West 463 533 32,000  Level Indianapolis Center
09:06AM 38.2650 -82.0706 251° West 463 533 32,000  Level Indianapolis Center
09:07AM 38.2231 -82.2219 251° West 463 533 32,000  Level Indianapolis Center
09:08AM 38.1889 -82.3469 250° West 468 539 32,000  Level Indianapolis Center
09:10AM 38.1183 -82.5878 250° West 458 527 32,000  Level FlightAware ADS-B
09:10AM 38.0951 -82.6683 250° West 447 514 32,000  Level FlightAware ADS-B
09:11AM 38.0618 -82.7832 250° West 461 531 32,000  Level FlightAware ADS-B
09:12AM 38.0393 -82.8611 250° West 459 528 32,000  Level FlightAware ADS-B
09:12AM 38.0108 -82.9593 250° West 460 529 32,000  Level FlightAware ADS-B
09:13AM 37.9813 -83.0601 250° West 379 436 32,000  Level FlightAware ADS-B
09:14AM 37.9212 -83.2649 249° West 458 527 32,000  Level FlightAware ADS-B
09:15AM 37.8901 -83.3701 251° West 438 504 32,000  Level FlightAware ADS-B
09:15AM 37.8739 -83.4308 250° West 463 533 32,000  Level Indianapolis Center
09:16AM 37.8322 -83.5753 248° West 457 526 32,000  Level Indianapolis Center
09:17AM 37.7861 -83.7225 249° West 449 517 32,000  Level Indianapolis Center
09:18AM 37.7422 -83.8694 249° West 454 522 32,000  Level Indianapolis Center
09:20AM 37.6644 -84.1227 249° West 457 526 32,000  Level FlightAware ADS-B
09:21AM 37.6378 -84.2097 249° West 440 506 32,000  Level FlightAware ADS-B
09:21AM 37.6156 -84.2820 249° West 447 514 32,000  Level FlightAware ADS-B
09:22AM 37.5921 -84.3583 249° West 456 525 32,000  Level FlightAware ADS-B
09:22AM 37.5684 -84.4352 249° West 454 522 32,000  Level FlightAware ADS-B
09:23AM 37.5458 -84.5084 249° West 440 506 32,000  Level FlightAware ADS-B
09:23AM 37.5219 -84.5860 249° West 458 527 32,000  Level FlightAware ADS-B
09:24AM 37.4988 -84.6603 249° West 453 521 32,000  Level FlightAware ADS-B
09:24AM 37.4746 -84.7383 249° West 462 532 32,000  Level FlightAware ADS-B
09:25AM 37.4521 -84.8108 249° West 434 499 32,000  Level FlightAware ADS-B
09:25AM 37.4287 -84.8862 249° West 471 542 32,000  Level FlightAware ADS-B
09:26AM 37.4059 -84.9597 248° West 436 502 32,000  Level FlightAware ADS-B
09:26AM 37.3824 -85.0342 248° West 447 514 32,000  Level FlightAware ADS-B
09:27AM 37.3587 -85.1096 248° West 456 525 32,000  Level FlightAware ADS-B
09:27AM 37.3357 -85.1827 248° West 447 514 32,000  Level FlightAware ADS-B
09:28AM 37.3123 -85.2567 248° West 456 525 32,000  Level FlightAware ADS-B
09:28AM 37.2880 -85.3341 248° West 493 567 32,000  Level FlightAware ADS-B
09:29AM 37.2601 -85.4214 248° West 452 520 32,000  Level FlightAware ADS-B
09:30AM 37.2327 -85.5073 248° West 481 554 32,000  Level FlightAware ADS-B
09:30AM 37.2097 -85.5802 248° West 445 512 32,000  Level FlightAware ADS-B
09:31AM 37.1856 -85.6557 248° West 464 534 32,000  Level FlightAware ADS-B
09:31AM 37.1510 -85.7630 248° West 462 532 32,000  Level FlightAware ADS-B
09:32AM 37.1273 -85.8362 248° West 457 526 32,000  Level FlightAware ADS-B
09:32AM 37.1031 -85.9107 248° West 454 522 32,000  Level FlightAware ADS-B
09:33AM 37.0790 -85.9849 248° West 446 513 32,000  Level FlightAware ADS-B
09:33AM 37.0553 -86.0576 248° West 447 514 32,000  Level FlightAware ADS-B
09:34AM 37.0243 -86.1528 248° West 459 528 32,000  Level FlightAware ADS-B
09:35AM 37.0000 -86.2269 248° West 457 526 32,000  Level FlightAware ADS-B
09:35AM 36.9710 -86.3153 248° West 460 529 32,000  Level FlightAware ADS-B
09:36AM 36.9402 -86.4096 243° Southwest 450 518 32,000  Level FlightAware ADS-B
09:37AM 36.8973 -86.5158 241° Southwest 453 521 32,000  Level FlightAware ADS-B
09:38AM 36.8386 -86.6490 242° Southwest 457 526 32,000  Level FlightAware ADS-B
09:38AM 36.8078 -86.7214 241° Southwest 460 529 32,000  Level Memphis Center
09:39AM 36.7469 -86.8561 242° Southwest 460 529 32,000  Level Memphis Center
09:40AM 36.6883 -86.9958 242° Southwest 460 529 32,000  Level Memphis Center
09:41AM 36.6275 -87.1353 239° Southwest 460 529 32,000  Level Memphis Center
09:42AM 36.5619 -87.2697 242° Southwest 460 529 32,000  Level Memphis Center
09:43AM 36.5008 -87.4114 241° Southwest 460 529 32,000  Level Memphis Center
09:44AM 36.4394 -87.5478 240° Southwest 465 535 32,000  Level Memphis Center
09:45AM 36.3758 -87.6867 241° Southwest 465 535 32,000  Level Memphis Center
09:46AM 36.3142 -87.8253 240° Southwest 465 535 32,000  Level Memphis Center
09:47AM 36.2500 -87.9611 240° Southwest 465 535 32,000  Level Memphis Center
09:48AM 36.1819 -88.1069 241° Southwest 465 535 32,000 -600 Level Memphis Center
09:49AM 36.1278 -88.2267 239° Southwest 460 529 30,900 -1,320 Descending Memphis Center
09:50AM 36.0633 -88.3594 241° Southwest 460 529 29,400 -1,740 Descending Memphis Center
09:51AM 36.0028 -88.4942 239° Southwest 455 524 27,500 -2,160 Descending Memphis Center
09:52AM 35.9358 -88.6292 240° Southwest 444 511 25,100 -1,860 Descending Memphis Center
09:53AM 35.8772 -88.7558 239° Southwest 439 505 23,800 -1,860 Descending Memphis Center
09:54AM 35.8203 -88.8747 240° Southwest 424 488 21,400 -2,580 Descending Memphis Center
09:55AM 35.7633 -88.9961 235° Southwest 418 481 18,700 -2,700 Descending Memphis Center
09:56AM 35.6978 -89.1094 229° Southwest 413 475 16,100 -2,760 Descending Memphis Center
09:57AM 35.6236 -89.2128 225° Southwest 406 467 13,200 -2,940 Descending Memphis Center
09:58AM 35.5747 -89.2736 227° Southwest 409 471 11,300 -2,400 Descending FAA TRACON SMA TRACON (SMA)
09:58AM 35.5306 -89.3317 225° Southwest 387 445 10,100 -1,020 Descending FAA TRACON SMA TRACON (SMA)
09:59AM 35.4836 -89.3897 248° West 348 400 10,000 -120 Descending FAA TRACON SMA TRACON (SMA)
10:00AM 35.4614 -89.4558 260° West 308 354 10,000 -600 Level FAA TRACON SMA TRACON (SMA)
10:00AM 35.4531 -89.5156 259° West 292 336 9,200 -1,140 Descending FAA TRACON SMA TRACON (SMA)
10:01AM 35.4431 -89.5811 259° West 285 328 8,500 -1,080 Descending FAA TRACON SMA TRACON (SMA)
10:02AM 35.4328 -89.6453 248° West 279 321 7,800 -1,140 Descending FAA TRACON SMA TRACON (SMA)
10:02AM 35.4147 -89.6989 240° Southwest 278 320 7,000 -1,380 Descending FAA TRACON SMA TRACON (SMA)
10:03AM 35.3881 -89.7553 239° Southwest 277 319 6,000 -1,500 Descending FAA TRACON SMA TRACON (SMA)
10:04AM 35.3611 -89.8106 230° Southwest 274 315 5,000 -1,620 Descending FAA TRACON SMA TRACON (SMA)
10:04AM 35.3322 -89.8531 231° Southwest 264 304 3,900 -1,440 Descending FAA TRACON SMA TRACON (SMA)
10:05AM 35.3008 -89.9014 232° Southwest 263 303 3,100 -720 Descending FAA TRACON SMA TRACON (SMA)
10:06AM 35.2733 -89.9439 230° Southwest 238 274 3,000 -300 Descending FAA TRACON SMA TRACON (SMA)
10:07AM 35.2525 -89.9742 184° South 195 224 2,700 -780 Descending FAA TRACON SMA TRACON (SMA)
10:07AM 35.2200 -89.9769 179° South 178 205 2,000 -480 Descending FAA TRACON SMA TRACON (SMA)
10:08AM 35.1722 -89.9758 179° South 171 197 2,000  Level FAA TRACON SMA TRACON (SMA)
10:09AM 35.1406 -89.9750 179° South 165 190 2,000 -420 Level FAA TRACON SMA TRACON (SMA)
10:09AM 35.1119 -89.9744 178° South 164 189 1,500 -780 Descending FAA TRACON SMA TRACON (SMA)
10:10AM 35.0875 -89.9736 179° South 132 152 1,000 -720 Descending FAA TRACON SMA TRACON (SMA)
10:11AM 35.0639 -89.9733 178° South 127 146 600 -420 Descending FAA TRACON SMA TRACON (SMA)
10:11AM 35.0572 -89.9731 167° South 127 146 500 -180 Descending FAA TRACON SMA TRACON (SMA)
10:19AM 34.7743 -89.8915 345° North  Level FlightAware Approximate
10:20AM 34.8872 -89.9282 349° North  Level FlightAware Approximate
10:21AM 35.0018 -89.9562 338° Northwest  Level FlightAware Approximate
10:22AM 35.1101 -90.0109 155° Southeast  Level Estimated
10:23AM 35.0333 -89.9667 318° Northwest  Level FlightAware Approximate
10:24AM 35.1203 -90.0625 138° Southeast  Level Estimated
10:25AM 35.0333 -89.9667 318° Northwest  Level FlightAware Approximate
10:26AM 35.1203 -90.0625 138° Southeast  Level Estimated
10:27AM 35.0333 -89.9667 318° Northwest  Level FlightAware Approximate
10:28AM 35.1203 -90.0625 138° Southeast  Level Estimated
10:29AM 35.0333 -89.9667 138° Southeast  Level FlightAware Approximate